PAL3858 RPLL-RPVK

Flight info

Callsign PAL3858
Flight time 1h 8m
Altitude 23000
Route VERDE W24 TAPER
Aircraft B738/M-SDE2E3FGHIRWXY/LB1

Departure

Time 2026-04-25 14:04
Airport Ninoy Aquino International Airport (RPLL)

Arrival

Time 2026-04-25 15:13
Airport Kalibo International Airport (RPVK)
Time Latitude Longitude Altitude Speed Heading
2026-04-25 13:34 14.51164 121.01278 82 ft 0 kts 217°
2026-04-25 13:44 14.51170 121.01283 82 ft 2 kts 217°
2026-04-25 13:44 14.51181 121.01291 82 ft 0 kts 217°
2026-04-25 13:44 14.51189 121.01297 82 ft 2 kts 210°
2026-04-25 13:45 14.51200 121.01302 82 ft 0 kts 197°
2026-04-25 13:46 14.51199 121.01302 82 ft 1 kts 199°
2026-04-25 13:47 14.51184 121.01293 82 ft 2 kts 216°
2026-04-25 13:47 14.51165 121.01279 81 ft 0 kts 216°
2026-04-25 13:50 14.51173 121.01285 82 ft 2 kts 213°
2026-04-25 13:51 14.51185 121.01294 82 ft 2 kts 218°
2026-04-25 13:51 14.51197 121.01301 82 ft 1 kts 200°
2026-04-25 13:51 14.51211 121.01305 82 ft 2 kts 188°
2026-04-25 13:51 14.51226 121.01305 82 ft 2 kts 174°
2026-04-25 13:52 14.51240 121.01302 82 ft 2 kts 161°
2026-04-25 13:52 14.51254 121.01296 82 ft 2 kts 147°
2026-04-25 13:52 14.51262 121.01290 82 ft 1 kts 138°
2026-04-25 13:52 14.51266 121.01286 82 ft 0 kts 137°
2026-04-25 13:54 14.51258 121.01293 82 ft 4 kts 137°
2026-04-25 13:54 14.51218 121.01331 82 ft 10 kts 136°
2026-04-25 13:55 14.51158 121.01394 82 ft 16 kts 135°
2026-04-25 13:55 14.51043 121.01514 82 ft 16 kts 134°
2026-04-25 13:55 14.50986 121.01572 82 ft 0 kts 135°
2026-04-25 13:57 14.50983 121.01575 82 ft 3 kts 135°
2026-04-25 13:57 14.50880 121.01662 82 ft 14 kts 179°
2026-04-25 13:57 14.50807 121.01569 82 ft 19 kts 240°
2026-04-25 13:58 14.50731 121.01435 82 ft 23 kts 240°
2026-04-25 13:58 14.50645 121.01280 82 ft 26 kts 240°
2026-04-25 13:58 14.50549 121.01107 82 ft 30 kts 240°
2026-04-25 13:58 14.50476 121.00977 82 ft 31 kts 241°
2026-04-25 13:59 14.50329 121.00708 82 ft 32 kts 239°
2026-04-25 13:59 14.50218 121.00517 82 ft 31 kts 241°
2026-04-25 13:59 14.50120 121.00337 82 ft 31 kts 238°
2026-04-25 13:59 14.50051 121.00214 82 ft 21 kts 241°
2026-04-25 14:01 14.49911 120.99968 82 ft 0 kts 208°
2026-04-25 14:02 14.49883 120.99964 82 ft 12 kts 174°
2026-04-25 14:02 14.49815 121.00065 82 ft 25 kts 72°
2026-04-25 14:02 14.49844 121.00122 82 ft 0 kts 61°
2026-04-25 14:03 14.49846 121.00126 82 ft 5 kts 61°
2026-04-25 14:03 14.49959 121.00332 82 ft 72 kts 60°
2026-04-25 14:03 14.50349 121.01033 82 ft 152 kts 61°
2026-04-25 14:04 14.50998 121.02138 450 ft 193 kts 59°
2026-04-25 14:04 14.51428 121.02887 1285 ft 184 kts 61°
2026-04-25 14:04 14.52251 121.04214 2780 ft 161 kts 54°
2026-04-25 14:04 14.52933 121.05079 3605 ft 155 kts 47°
2026-04-25 14:05 14.53651 121.05885 4305 ft 154 kts 60°
2026-04-25 14:05 14.53799 121.06972 4857 ft 162 kts 110°
2026-04-25 14:05 14.53023 121.07822 5385 ft 177 kts 158°
2026-04-25 14:05 14.51838 121.08179 6116 ft 178 kts 169°
2026-04-25 14:06 14.50576 121.08281 6777 ft 184 kts 176°
2026-04-25 14:06 14.49283 121.08299 7362 ft 187 kts 177°
2026-04-25 14:06 14.47994 121.08315 7996 ft 191 kts 177°
2026-04-25 14:06 14.46616 121.08324 8413 ft 211 kts 184°
2026-04-25 14:07 14.45129 121.07761 8428 ft 239 kts 219°
2026-04-25 14:07 14.44229 121.06373 8381 ft 230 kts 260°
2026-04-25 14:07 14.44371 121.04802 8413 ft 225 kts 296°
2026-04-25 14:07 14.45032 121.03314 8391 ft 227 kts 286°
2026-04-25 14:08 14.45110 121.01572 8426 ft 260 kts 258°
2026-04-25 14:08 14.44401 120.99807 8569 ft 271 kts 240°
2026-04-25 14:08 14.43384 120.98108 8947 ft 289 kts 237°
2026-04-25 14:08 14.42258 120.96300 9011 ft 299 kts 237°
2026-04-25 14:09 14.41314 120.94788 8989 ft 297 kts 237°
2026-04-25 14:09 14.40108 120.92852 8986 ft 298 kts 237°
2026-04-25 14:09 14.38980 120.91043 8994 ft 299 kts 237°
2026-04-25 14:09 14.38596 120.90427 8998 ft 300 kts 237°
2026-04-25 14:10 14.36700 120.87377 10243 ft 306 kts 237°
2026-04-25 14:10 14.35567 120.85555 11282 ft 303 kts 237°
2026-04-25 14:10 14.34438 120.83744 12214 ft 302 kts 237°
2026-04-25 14:10 14.33305 120.81931 13045 ft 305 kts 237°
2026-04-25 14:11 14.32151 120.80084 13824 ft 308 kts 237°
2026-04-25 14:11 14.30988 120.78226 14570 ft 312 kts 237°
2026-04-25 14:11 14.29802 120.76369 15270 ft 315 kts 234°
2026-04-25 14:11 14.28231 120.74777 15940 ft 320 kts 214°
2026-04-25 14:12 14.26148 120.73893 16597 ft 327 kts 192°
2026-04-25 14:12 14.23888 120.73882 17235 ft 333 kts 171°
2026-04-25 14:12 14.21629 120.74574 17902 ft 337 kts 161°
2026-04-25 14:12 14.19491 120.75476 18494 ft 342 kts 158°
2026-04-25 14:13 14.17327 120.76458 19125 ft 345 kts 158°
2026-04-25 14:13 14.15107 120.77487 19723 ft 349 kts 158°
2026-04-25 14:13 14.12847 120.78542 19933 ft 353 kts 157°
2026-04-25 14:13 14.10607 120.79591 19951 ft 350 kts 157°
2026-04-25 14:14 14.08388 120.80631 19951 ft 349 kts 157°
2026-04-25 14:14 14.06174 120.81669 19952 ft 350 kts 157°
2026-04-25 14:14 14.03943 120.82715 19955 ft 350 kts 157°
2026-04-25 14:14 14.01733 120.83751 19954 ft 349 kts 157°
2026-04-25 14:15 13.99509 120.84792 19956 ft 349 kts 157°
2026-04-25 14:15 13.98768 120.85137 19957 ft 349 kts 157°
2026-04-25 14:15 13.95027 120.86884 19953 ft 348 kts 158°
2026-04-25 14:15 13.92840 120.87905 19958 ft 348 kts 157°
2026-04-25 14:16 13.90617 120.88942 19960 ft 348 kts 157°
2026-04-25 14:16 13.88367 120.89990 19958 ft 348 kts 157°
2026-04-25 14:16 13.86174 120.91008 19953 ft 348 kts 157°
2026-04-25 14:16 13.84090 120.91975 19952 ft 349 kts 157°
2026-04-25 14:17 13.81854 120.93012 19951 ft 349 kts 157°
2026-04-25 14:17 13.79612 120.94053 19956 ft 349 kts 157°
2026-04-25 14:17 13.77393 120.95080 19957 ft 349 kts 157°
2026-04-25 14:17 13.75158 120.96112 19951 ft 349 kts 157°
2026-04-25 14:18 13.72956 120.97124 19956 ft 349 kts 157°
2026-04-25 14:18 13.70749 120.98135 19962 ft 349 kts 157°
2026-04-25 14:18 13.68542 120.99144 19959 ft 348 kts 158°
2026-04-25 14:18 13.66287 121.00177 20058 ft 358 kts 157°
2026-04-25 14:19 13.64009 121.01221 20820 ft 355 kts 158°
2026-04-25 14:19 13.61745 121.02265 21512 ft 355 kts 158°
2026-04-25 14:19 13.59494 121.03309 22042 ft 358 kts 158°
2026-04-25 14:19 13.57184 121.04391 22589 ft 361 kts 157°
2026-04-25 14:20 13.54867 121.05467 22940 ft 367 kts 159°
2026-04-25 14:20 13.54077 121.05785 22966 ft 367 kts 163°
2026-04-25 14:20 13.49944 121.06599 22979 ft 358 kts 179°
2026-04-25 14:20 13.47480 121.06818 22980 ft 359 kts 172°
2026-04-25 14:21 13.45045 121.07467 22996 ft 363 kts 161°
2026-04-25 14:21 13.42743 121.08564 23008 ft 365 kts 153°
2026-04-25 14:21 13.40580 121.09901 23019 ft 366 kts 149°
2026-04-25 14:21 13.38449 121.11369 23023 ft 366 kts 147°
2026-04-25 14:22 13.36352 121.12873 23028 ft 366 kts 146°
2026-04-25 14:22 13.34252 121.14391 23023 ft 366 kts 146°
2026-04-25 14:22 13.32177 121.15884 23024 ft 366 kts 147°
2026-04-25 14:22 13.30057 121.17397 23018 ft 366 kts 147°
2026-04-25 14:23 13.27979 121.18871 23009 ft 365 kts 147°
2026-04-25 14:23 13.25858 121.20370 23003 ft 365 kts 147°
2026-04-25 14:23 13.23784 121.21828 22993 ft 365 kts 147°
2026-04-25 14:23 13.21662 121.23319 22980 ft 365 kts 147°
2026-04-25 14:24 13.19587 121.24775 22971 ft 365 kts 147°
2026-04-25 14:24 13.17494 121.26242 22964 ft 365 kts 147°
2026-04-25 14:24 13.15363 121.27736 22972 ft 365 kts 147°
2026-04-25 14:24 13.13299 121.29182 22973 ft 365 kts 147°
2026-04-25 14:25 13.11171 121.30672 22977 ft 364 kts 147°
2026-04-25 14:25 13.09096 121.32125 22979 ft 364 kts 147°
2026-04-25 14:25 13.06994 121.33598 22988 ft 365 kts 147°
2026-04-25 14:25 13.06294 121.34087 22988 ft 365 kts 147°
2026-04-25 14:26 13.04192 121.35560 22986 ft 366 kts 147°
2026-04-25 14:26 13.01389 121.37521 22986 ft 366 kts 147°
2026-04-25 14:26 12.99262 121.39008 22987 ft 374 kts 147°
2026-04-25 14:27 12.93997 121.42683 22974 ft 407 kts 147°
2026-04-25 14:27 12.91616 121.44345 22961 ft 406 kts 147°
2026-04-25 14:27 12.89270 121.45986 22954 ft 404 kts 147°
2026-04-25 14:27 12.86953 121.47607 22949 ft 405 kts 147°
2026-04-25 14:28 12.84610 121.49245 22945 ft 405 kts 147°
2026-04-25 14:28 12.82283 121.50871 22939 ft 405 kts 147°
2026-04-25 14:28 12.79965 121.52490 22935 ft 405 kts 147°
2026-04-25 14:28 12.77618 121.54128 22937 ft 405 kts 147°
2026-04-25 14:29 12.75303 121.55744 22937 ft 405 kts 147°
2026-04-25 14:29 12.72978 121.57367 22933 ft 404 kts 147°
2026-04-25 14:29 12.70636 121.59001 22934 ft 404 kts 147°
2026-04-25 14:29 12.68308 121.60625 22935 ft 404 kts 147°
2026-04-25 14:30 12.65998 121.62235 22935 ft 404 kts 147°
2026-04-25 14:30 12.61354 121.65474 22931 ft 404 kts 147°
2026-04-25 14:30 12.59058 121.67074 22931 ft 404 kts 147°
2026-04-25 14:31 12.56709 121.68710 22930 ft 405 kts 147°
2026-04-25 14:31 12.54386 121.70329 22929 ft 404 kts 147°
2026-04-25 14:31 12.52061 121.71948 22928 ft 404 kts 147°
2026-04-25 14:31 12.49746 121.73560 22923 ft 404 kts 147°
2026-04-25 14:32 12.47459 121.75153 22671 ft 398 kts 147°
2026-04-25 14:32 12.45159 121.76753 22122 ft 397 kts 147°
2026-04-25 14:32 12.42899 121.78326 21625 ft 394 kts 146°
2026-04-25 14:32 12.40633 121.79903 21134 ft 391 kts 146°
2026-04-25 14:33 12.38378 121.81472 20642 ft 388 kts 146°
2026-04-25 14:33 12.36210 121.82986 19943 ft 384 kts 145°
2026-04-25 14:33 12.34112 121.84560 19140 ft 379 kts 142°
2026-04-25 14:33 12.32062 121.86212 18315 ft 375 kts 141°
2026-04-25 14:34 12.30049 121.87891 17501 ft 370 kts 140°
2026-04-25 14:34 12.28108 121.89520 16686 ft 366 kts 140°
2026-04-25 14:34 12.26125 121.91173 15840 ft 363 kts 140°
2026-04-25 14:34 12.24197 121.92763 15014 ft 360 kts 141°
2026-04-25 14:35 12.22272 121.94339 14472 ft 347 kts 141°
2026-04-25 14:35 12.20423 121.95842 14066 ft 333 kts 141°
2026-04-25 14:35 12.18653 121.97279 13912 ft 318 kts 141°
2026-04-25 14:35 12.16918 121.98686 13910 ft 318 kts 141°
2026-04-25 14:36 12.15184 122.00091 13926 ft 321 kts 141°
2026-04-25 14:36 12.13421 122.01518 13900 ft 317 kts 141°
2026-04-25 14:36 12.11707 122.02906 13906 ft 317 kts 141°
2026-04-25 14:36 12.10547 122.03845 13906 ft 318 kts 141°
2026-04-25 14:37 12.08322 122.05843 13904 ft 318 kts 131°
2026-04-25 14:37 12.07082 122.07655 13910 ft 317 kts 118°
2026-04-25 14:37 12.06071 122.09679 13906 ft 317 kts 114°
2026-04-25 14:37 12.05155 122.11694 13907 ft 316 kts 114°
2026-04-25 14:38 12.04215 122.13747 13908 ft 316 kts 114°
2026-04-25 14:38 12.03253 122.15772 13908 ft 316 kts 115°
2026-04-25 14:38 12.02280 122.17759 13909 ft 317 kts 116°
2026-04-25 14:38 12.01278 122.19774 13908 ft 316 kts 116°
2026-04-25 14:39 12.00290 122.21750 13908 ft 317 kts 116°
2026-04-25 14:39 11.99283 122.23759 13907 ft 317 kts 116°
2026-04-25 14:39 11.98287 122.25745 13723 ft 312 kts 116°
2026-04-25 14:39 11.97297 122.27725 13103 ft 313 kts 116°
2026-04-25 14:40 11.96318 122.29684 12498 ft 310 kts 116°
2026-04-25 14:40 11.95346 122.31630 11922 ft 305 kts 116°
2026-04-25 14:40 11.94394 122.33536 11341 ft 302 kts 116°
2026-04-25 14:40 11.93457 122.35408 10780 ft 297 kts 116°
2026-04-25 14:41 11.92525 122.37273 10195 ft 294 kts 116°
2026-04-25 14:41 11.91604 122.39115 9626 ft 290 kts 116°
2026-04-25 14:41 11.90681 122.40935 9039 ft 287 kts 116°
2026-04-25 14:41 11.89762 122.42703 8495 ft 282 kts 116°
2026-04-25 14:42 11.88847 122.44430 7941 ft 279 kts 116°
2026-04-25 14:42 11.88530 122.45024 7742 ft 278 kts 116°
2026-04-25 14:42 11.87024 122.47849 6824 ft 271 kts 112°
2026-04-25 14:42 11.86580 122.49661 6231 ft 265 kts 88°
2026-04-25 14:43 11.86990 122.51464 5650 ft 261 kts 62°
2026-04-25 14:43 11.88166 122.52844 5063 ft 262 kts 36°
2026-04-25 14:43 11.89838 122.53517 4467 ft 267 kts 11°
2026-04-25 14:43 11.91712 122.53525 4009 ft 266 kts 359°
2026-04-25 14:44 11.93550 122.53339 3928 ft 266 kts 358°
2026-04-25 14:44 11.95401 122.53159 3919 ft 267 kts
2026-04-25 14:44 11.97239 122.52885 3921 ft 273 kts 342°
2026-04-25 14:44 11.98814 122.51709 3932 ft 285 kts 309°
2026-04-25 14:45 11.99588 122.49841 3953 ft 293 kts 279°
2026-04-25 14:45 11.99468 122.47790 3929 ft 292 kts 254°
2026-04-25 14:45 11.98599 122.45940 3930 ft 290 kts 232°
2026-04-25 14:45 11.97190 122.44459 3930 ft 287 kts 216°
2026-04-25 14:46 11.95499 122.43523 3922 ft 267 kts 189°
2026-04-25 14:46 11.93755 122.43481 3935 ft 242 kts 162°
2026-04-25 14:46 11.92235 122.44101 3943 ft 232 kts 145°
2026-04-25 14:46 11.90827 122.44971 3942 ft 233 kts 143°
2026-04-25 14:47 11.89452 122.45823 3946 ft 233 kts 144°
2026-04-25 14:47 11.88981 122.46112 3948 ft 233 kts 144°
2026-04-25 14:47 11.86711 122.47496 3950 ft 221 kts 144°
2026-04-25 14:47 11.85360 122.48326 3959 ft 231 kts 144°
2026-04-25 14:48 11.83972 122.49181 3949 ft 232 kts 144°
2026-04-25 14:48 11.82584 122.50028 3949 ft 233 kts 145°
2026-04-25 14:48 11.81082 122.50702 3944 ft 239 kts 162°
2026-04-25 14:48 11.79406 122.50623 3950 ft 251 kts 198°
2026-04-25 14:49 11.77947 122.49583 3961 ft 258 kts 225°
2026-04-25 14:49 11.76813 122.48157 3949 ft 257 kts 231°
2026-04-25 14:49 11.75738 122.46725 3898 ft 254 kts 230°
2026-04-25 14:49 11.74623 122.45332 3725 ft 246 kts 228°
2026-04-25 14:50 11.73522 122.44027 3503 ft 243 kts 227°
2026-04-25 14:50 11.72404 122.42733 3203 ft 243 kts 227°
2026-04-25 14:50 11.71293 122.41451 2799 ft 242 kts 226°
2026-04-25 14:50 11.70203 122.40185 2530 ft 233 kts 226°
2026-04-25 14:51 11.69091 122.39005 2284 ft 228 kts 211°
2026-04-25 14:51 11.67629 122.38522 2055 ft 213 kts 180°
2026-04-25 14:51 11.66150 122.38605 1974 ft 211 kts 165°
2026-04-25 14:51 11.64749 122.39002 1863 ft 208 kts 154°
2026-04-25 14:52 11.63496 122.39677 1867 ft 200 kts 135°
2026-04-25 14:52 11.62608 122.40756 2093 ft 197 kts 118°
2026-04-25 14:52 11.62078 122.42045 2312 ft 195 kts 98°
2026-04-25 14:52 11.62020 122.42487 2385 ft 193 kts 92°
2026-04-25 14:53 11.62333 122.44733 2810 ft 192 kts 70°
2026-04-25 14:53 11.62995 122.45902 2993 ft 195 kts 51°
2026-04-25 14:53 11.63788 122.47008 3184 ft 194 kts 66°
2026-04-25 14:53 11.64216 122.48318 3441 ft 195 kts 70°
2026-04-25 14:54 11.64793 122.49598 3820 ft 204 kts 63°
2026-04-25 14:54 11.65537 122.50824 3971 ft 202 kts 57°
2026-04-25 14:54 11.66395 122.51930 3953 ft 199 kts 51°
2026-04-25 14:54 11.67372 122.52945 3950 ft 200 kts 45°
2026-04-25 14:55 11.68443 122.53857 3945 ft 201 kts 43°
2026-04-25 14:55 11.69493 122.54778 3977 ft 201 kts 39°
2026-04-25 14:55 11.70714 122.55466 3884 ft 202 kts 42°
2026-04-25 14:55 11.71610 122.56554 3917 ft 197 kts 59°
2026-04-25 14:56 11.72256 122.57790 3841 ft 202 kts 66°
2026-04-25 14:56 11.72809 122.59122 3392 ft 201 kts 68°
2026-04-25 14:56 11.73629 122.60201 3717 ft 199 kts 35°
2026-04-25 14:56 11.74964 122.60689 3956 ft 207 kts 22°
2026-04-25 14:57 11.76130 122.61459 3938 ft 198 kts 56°
2026-04-25 14:57 11.76688 122.62727 3945 ft 198 kts 72°
2026-04-25 14:57 11.77107 122.64054 3939 ft 196 kts 76°
2026-04-25 14:57 11.77091 122.65435 3942 ft 201 kts 105°
2026-04-25 14:58 11.76275 122.66592 3942 ft 209 kts 139°
2026-04-25 14:58 11.74871 122.67107 3942 ft 221 kts 170°
2026-04-25 14:58 11.73322 122.67130 3939 ft 221 kts 173°
2026-04-25 14:58 11.71781 122.67033 3939 ft 225 kts 187°
2026-04-25 14:59 11.70239 122.66629 3939 ft 226 kts 192°
2026-04-25 14:59 11.68715 122.66183 3939 ft 226 kts 192°
2026-04-25 14:59 11.67197 122.65761 3940 ft 226 kts 189°
2026-04-25 14:59 11.65656 122.65385 3941 ft 225 kts 189°
2026-04-25 15:00 11.64146 122.64926 3942 ft 229 kts 198°
2026-04-25 15:00 11.62855 122.63946 3943 ft 236 kts 230°
2026-04-25 15:00 11.62232 122.62443 3940 ft 236 kts 263°
2026-04-25 15:00 11.62458 122.60795 3937 ft 231 kts 297°
2026-04-25 15:01 11.63329 122.59454 3939 ft 227 kts 313°
2026-04-25 15:01 11.64483 122.58422 3931 ft 218 kts 341°
2026-04-25 15:01 11.65939 122.58308 3935 ft 206 kts 22°
2026-04-25 15:01 11.67014 122.59161 3938 ft 198 kts 57°
2026-04-25 15:02 11.67744 122.60359 3931 ft 200 kts 57°
2026-04-25 15:02 11.68632 122.61454 3931 ft 200 kts 48°
2026-04-25 15:02 11.69669 122.62386 3937 ft 201 kts 41°
2026-04-25 15:02 11.70797 122.63242 3941 ft 203 kts 39°
2026-04-25 15:03 11.71974 122.64067 3942 ft 203 kts 32°
2026-04-25 15:03 11.73355 122.64391 3948 ft 213 kts
2026-04-25 15:03 11.74773 122.63863 3951 ft 225 kts 328°
2026-04-25 15:03 11.75737 122.62595 3951 ft 232 kts 294°
2026-04-25 15:04 11.75915 122.60952 3951 ft 236 kts 261°
2026-04-25 15:04 11.75260 122.59444 3955 ft 235 kts 233°
2026-04-25 15:04 11.74230 122.58151 3951 ft 233 kts 227°
2026-04-25 15:04 11.73184 122.56908 3951 ft 234 kts 227°
2026-04-25 15:05 11.71996 122.55774 3951 ft 231 kts 212°
2026-04-25 15:05 11.70666 122.54859 3951 ft 230 kts 210°
2026-04-25 15:05 11.69256 122.54099 3950 ft 227 kts 194°
2026-04-25 15:06 11.66480 122.54769 3955 ft 206 kts 128°
2026-04-25 15:06 11.65869 122.56050 3958 ft 200 kts 101°
2026-04-25 15:06 11.65622 122.57440 3949 ft 201 kts 97°
2026-04-25 15:06 11.65385 122.58878 3944 ft 207 kts 98°
2026-04-25 15:07 11.65277 122.60320 3934 ft 203 kts 80°
2026-04-25 15:07 11.65982 122.61534 3934 ft 205 kts 40°
2026-04-25 15:07 11.67319 122.61955 3773 ft 209 kts
2026-04-25 15:07 11.68739 122.61519 3413 ft 215 kts 339°
2026-04-25 15:08 11.70009 122.60751 3109 ft 213 kts 330°
2026-04-25 15:08 11.71140 122.59734 2739 ft 216 kts 315°
2026-04-25 15:08 11.71911 122.58453 2449 ft 211 kts 296°
2026-04-25 15:08 11.72172 122.57485 2133 ft 212 kts 283°
2026-04-25 15:09 11.72495 122.55607 1907 ft 195 kts 284°
2026-04-25 15:09 11.72808 122.54260 1934 ft 196 kts 287°
2026-04-25 15:09 11.73515 122.51571 1929 ft 195 kts 288°
2026-04-25 15:10 11.73866 122.50227 1928 ft 195 kts 288°
2026-04-25 15:10 11.74216 122.48885 1930 ft 195 kts 288°
2026-04-25 15:10 11.74805 122.46178 1925 ft 196 kts 274°
2026-04-25 15:11 11.74638 122.45270 1925 ft 197 kts 246°
2026-04-25 15:11 11.73486 122.43845 1906 ft 198 kts 222°
2026-04-25 15:11 11.72516 122.42846 1761 ft 195 kts 225°
2026-04-25 15:12 11.70729 122.40796 1286 ft 190 kts 226°
2026-04-25 15:12 11.69837 122.39771 640 ft 196 kts 227°
2026-04-25 15:12 11.68961 122.38747 180 ft 187 kts 227°
2026-04-25 15:12 11.68684 122.38419 91 ft 180 kts 227°
2026-04-25 15:13 11.67576 122.37155 51 ft 49 kts 230°
2026-04-25 15:13 11.67496 122.37067 52 ft 0 kts 223°
2026-04-25 15:13 11.67495 122.37067 52 ft 1 kts 225°
2026-04-25 15:14 11.67492 122.37048 52 ft 1 kts 329°
2026-04-25 15:14 11.67547 122.37064 52 ft 15 kts 39°
2026-04-25 15:14 11.67653 122.37183 51 ft 29 kts 50°
2026-04-25 15:14 11.67823 122.37389 48 ft 48 kts 50°
2026-04-25 15:15 11.68039 122.37650 45 ft 47 kts 51°
2026-04-25 15:15 11.68245 122.37891 43 ft 44 kts 49°
2026-04-25 15:15 11.68447 122.38127 41 ft 42 kts 49°
2026-04-25 15:15 11.68557 122.38202 41 ft 5 kts 341°
2026-04-25 15:16 11.68565 122.38200 41 ft 0 kts 343°
2026-04-25 15:16 11.68579 122.38195 42 ft 7 kts 344°
2026-04-25 15:16 11.68605 122.38188 42 ft 0 kts 345°